Time,TemperatureF,DewpointF,PressureIn,WindDirection,WindDirectionDegrees,WindSpeedMPH,WindSpeedGustMPH,Humidity,HourlyPrecipIn,Conditions,Clouds,dailyrainin,SoftwareType,DateUTC
2013-11-08 00:13:00,37.0,30.0,30.09,WNW,302,0.0,0.0,77,0.00,,,0.03,,2013-11-08 05:13:00,
2013-11-08 00:23:00,37.0,30.0,30.09,WNW,302,0.0,0.0,77,0.00,,,0.03,,2013-11-08 05:23:00,
2013-11-08 00:43:00,37.0,30.0,30.11,WNW,302,0.0,2.0,77,0.00,,,0.03,,2013-11-08 05:43:00,
2013-11-08 00:54:00,37.0,30.0,30.11,WNW,302,0.0,2.0,77,0.00,,,0.03,,2013-11-08 05:54:00,
2013-11-08 01:13:00,36.0,29.0,30.11,WNW,291,1.0,5.0,77,0.00,,,0.03,,2013-11-08 06:13:00,
2013-11-08 01:23:00,36.0,29.0,30.11,WNW,291,1.0,5.0,77,0.00,,,0.03,,2013-11-08 06:23:00,
2013-11-08 01:42:00,36.0,30.0,30.10,NW,308,1.0,3.0,79,0.00,,,0.03,,2013-11-08 06:42:00,
2013-11-08 01:53:00,36.0,30.0,30.10,NW,308,1.0,3.0,79,0.00,,,0.03,,2013-11-08 06:53:00,
2013-11-08 02:12:00,36.0,29.0,30.10,WNW,289,2.0,6.0,77,0.00,,,0.03,,2013-11-08 07:12:00,
2013-11-08 02:22:00,36.0,29.0,30.10,WNW,289,2.0,6.0,77,0.00,,,0.03,,2013-11-08 07:22:00,
2013-11-08 02:42:00,36.0,29.0,30.11,West,277,1.0,5.0,75,0.00,,,0.03,,2013-11-08 07:42:00,
2013-11-08 02:52:00,36.0,29.0,30.11,West,277,1.0,5.0,75,0.00,,,0.03,,2013-11-08 07:52:00,
2013-11-08 03:12:00,35.0,28.0,30.12,West,271,1.0,2.0,74,0.00,,,0.03,,2013-11-08 08:12:00,
2013-11-08 03:22:00,35.0,28.0,30.12,West,271,1.0,2.0,74,0.00,,,0.03,,2013-11-08 08:22:00,
2013-11-08 03:42:00,35.0,28.0,30.11,NW,318,0.0,2.0,75,0.00,,,0.03,,2013-11-08 08:42:00,
2013-11-08 03:52:00,35.0,28.0,30.11,NW,318,0.0,2.0,75,0.00,,,0.03,,2013-11-08 08:52:00,
2013-11-08 04:12:00,35.0,28.0,30.12,WNW,285,1.0,5.0,74,0.00,,,0.03,,2013-11-08 09:12:00,
2013-11-08 04:22:00,35.0,28.0,30.12,WNW,285,1.0,5.0,74,0.00,,,0.03,,2013-11-08 09:22:00,
2013-11-08 04:43:00,35.0,28.0,30.14,WNW,287,0.0,3.0,74,0.00,,,0.03,,2013-11-08 09:43:00,
2013-11-08 04:54:00,35.0,28.0,30.14,WNW,287,0.0,3.0,74,0.00,,,0.03,,2013-11-08 09:54:00,
2013-11-08 05:13:00,35.0,28.0,30.14,NW,325,0.0,2.0,74,0.00,,,0.03,,2013-11-08 10:13:00,
2013-11-08 05:23:00,35.0,28.0,30.14,NW,325,0.0,2.0,74,0.00,,,0.03,,2013-11-08 10:23:00,
2013-11-08 05:43:00,34.0,27.0,30.14,NW,309,1.0,2.0,76,0.00,,,0.03,,2013-11-08 10:43:00,
2013-11-08 05:53:00,34.0,27.0,30.14,NW,309,1.0,2.0,76,0.00,,,0.03,,2013-11-08 10:53:00,
2013-11-08 06:12:00,34.0,27.0,30.14,NNW,343,1.0,10.0,76,0.00,,,0.03,,2013-11-08 11:12:00,
2013-11-08 06:22:00,34.0,27.0,30.14,NNW,343,1.0,10.0,76,0.00,,,0.03,,2013-11-08 11:22:00,
2013-11-08 06:42:00,34.0,26.0,30.16,WNW,288,0.0,5.0,73,0.00,,,0.03,,2013-11-08 11:42:00,
2013-11-08 06:52:00,34.0,26.0,30.16,WNW,288,0.0,5.0,73,0.00,,,0.03,,2013-11-08 11:52:00,
2013-11-08 07:11:00,34.0,27.0,30.16,NW,326,1.0,3.0,76,0.00,,,0.03,,2013-11-08 12:11:00,
2013-11-08 07:22:00,34.0,27.0,30.16,NW,326,1.0,3.0,76,0.00,,,0.03,,2013-11-08 12:22:00,
2013-11-08 07:42:00,34.0,28.0,30.18,WNW,288,1.0,3.0,78,0.00,,,0.03,,2013-11-08 12:42:00,
2013-11-08 07:52:00,34.0,28.0,30.18,WNW,288,1.0,3.0,78,0.00,,,0.03,,2013-11-08 12:52:00,
2013-11-08 08:11:00,34.0,28.0,30.19,WNW,282,0.0,1.0,78,0.00,,,0.03,,2013-11-08 13:11:00,
2013-11-08 08:22:00,34.0,28.0,30.19,WNW,282,0.0,1.0,78,0.00,,,0.03,,2013-11-08 13:22:00,
2013-11-08 08:42:00,35.0,29.0,30.20,WNW,291,0.0,4.0,78,0.00,,,0.02,,2013-11-08 13:42:00,
2013-11-08 08:52:00,35.0,29.0,30.20,WNW,291,0.0,4.0,78,0.00,,,0.02,,2013-11-08 13:52:00,
2013-11-08 09:11:00,36.0,29.0,30.21,NW,315,0.0,2.0,74,0.00,,,0.02,,2013-11-08 14:11:00,
2013-11-08 09:22:00,36.0,29.0,30.21,NW,315,0.0,2.0,74,0.00,,,0.02,,2013-11-08 14:22:00,
2013-11-08 09:42:00,39.0,27.0,30.21,NW,308,1.0,3.0,61,0.00,,,0.01,,2013-11-08 14:42:00,
2013-11-08 09:52:00,39.0,27.0,30.21,NW,308,1.0,3.0,61,0.00,,,0.01,,2013-11-08 14:52:00,
2013-11-08 10:11:00,42.0,30.0,30.23,WNW,301,1.0,3.0,62,0.00,,,0.01,,2013-11-08 15:11:00,
2013-11-08 10:22:00,42.0,30.0,30.23,WNW,301,1.0,3.0,62,0.00,,,0.01,,2013-11-08 15:22:00,
2013-11-08 10:44:00,45.0,29.0,30.22,NW,316,0.0,3.0,53,0.00,,,0.01,,2013-11-08 15:44:00,
2013-11-08 10:53:00,45.0,29.0,30.22,NW,316,0.0,3.0,53,0.00,,,0.01,,2013-11-08 15:53:00,
2013-11-08 11:13:00,45.0,27.0,30.23,NW,315,1.0,5.0,49,0.00,,,0.01,,2013-11-08 16:13:00,
2013-11-08 11:23:00,45.0,27.0,30.23,NW,315,1.0,5.0,49,0.00,,,0.01,,2013-11-08 16:23:00,
2013-11-08 11:41:00,48.0,25.0,30.23,NW,309,1.0,3.0,40,0.00,,,0.01,,2013-11-08 16:41:00,
2013-11-08 11:42:00,47.0,27.0,30.23,WNW,298,1.0,4.0,45,0.00,,,0.01,,2013-11-08 16:42:00,
2013-11-08 11:53:00,47.0,27.0,30.23,WNW,298,1.0,4.0,45,0.00,,,0.01,,2013-11-08 16:53:00,
2013-11-08 12:12:00,48.0,25.0,30.23,NW,309,1.0,3.0,40,0.00,,,0.01,,2013-11-08 17:12:00,
2013-11-08 12:22:00,48.0,25.0,30.23,NW,309,1.0,3.0,40,0.00,,,0.01,,2013-11-08 17:22:00,
2013-11-08 12:33:00,48.0,25.0,30.23,NW,309,1.0,3.0,40,0.00,,,0.01,,2013-11-08 17:33:00,
2013-11-08 14:42:00,57.0,23.0,30.18,NNW,346,0.0,2.0,27,0.00,,,0.01,,2013-11-08 19:42:00,
2013-11-08 14:53:00,57.0,23.0,30.18,NNW,346,0.0,2.0,27,0.00,,,0.01,,2013-11-08 19:53:00,
2013-11-08 15:12:00,54.0,22.0,30.16,North,349,0.0,3.0,29,0.00,,,0.01,,2013-11-08 20:12:00,
2013-11-08 15:42:00,52.0,22.0,30.16,North,350,1.0,3.0,31,0.00,,,0.00,,2013-11-08 20:42:00,
2013-11-08 15:53:00,52.0,22.0,30.16,North,350,1.0,3.0,31,0.00,,,0.00,,2013-11-08 20:53:00,
2013-11-08 17:24:00,47.0,26.0,30.18,NNW,333,0.0,2.0,43,0.00,,,0.00,,2013-11-08 22:24:00,
2013-11-08 17:43:00,45.0,25.0,30.19,NW,316,0.0,1.0,46,0.00,,,0.00,,2013-11-08 22:43:00,
2013-11-08 17:53:00,45.0,25.0,30.19,NW,316,0.0,1.0,46,0.00,,,0.00,,2013-11-08 22:53:00,
2013-11-08 18:12:00,43.0,27.0,30.17,NNW,335,0.0,2.0,52,0.00,,,0.00,,2013-11-08 23:12:00,
2013-11-08 18:22:00,43.0,27.0,30.17,NNW,335,0.0,2.0,52,0.00,,,0.00,,2013-11-08 23:22:00,
2013-11-08 18:43:00,42.0,23.0,30.17,NNW,335,0.0,0.0,47,0.00,,,0.00,,2013-11-08 23:43:00,
2013-11-08 18:53:00,42.0,23.0,30.17,NNW,335,0.0,0.0,47,0.00,,,0.00,,2013-11-08 23:53:00,
2013-11-08 19:12:00,41.0,23.0,30.19,NNW,335,0.0,0.0,49,0.00,,,0.00,,2013-11-09 00:12:00,
2013-11-08 19:22:00,41.0,23.0,30.19,NNW,335,0.0,0.0,49,0.00,,,0.00,,2013-11-09 00:22:00,
2013-11-08 19:42:00,40.0,23.0,30.19,NNW,335,0.0,0.0,51,0.00,,,0.00,,2013-11-09 00:42:00,
2013-11-08 19:52:00,40.0,23.0,30.19,NNW,335,0.0,0.0,51,0.00,,,0.00,,2013-11-09 00:52:00,
2013-11-08 20:11:00,39.0,22.0,30.20,NNW,335,0.0,0.0,51,0.00,,,0.00,,2013-11-09 01:11:00,
2013-11-08 20:22:00,39.0,22.0,30.20,NNW,335,0.0,0.0,51,0.00,,,0.00,,2013-11-09 01:22:00,
2013-11-08 20:42:00,38.0,23.0,30.21,NNW,335,0.0,0.0,54,0.00,,,0.00,,2013-11-09 01:42:00,
2013-11-08 20:52:00,38.0,23.0,30.21,NNW,335,0.0,0.0,54,0.00,,,0.00,,2013-11-09 01:52:00,
2013-11-08 21:12:00,38.0,24.0,30.21,NNW,335,0.0,0.0,56,0.00,,,0.00,,2013-11-09 02:12:00,
2013-11-08 21:22:00,38.0,24.0,30.21,NNW,335,0.0,0.0,56,0.00,,,0.00,,2013-11-09 02:22:00,
2013-11-08 21:42:00,37.0,23.0,30.23,NNW,335,0.0,0.0,56,0.00,,,0.00,,2013-11-09 02:42:00,
2013-11-08 21:52:00,37.0,23.0,30.23,NNW,335,0.0,0.0,56,0.00,,,0.00,,2013-11-09 02:52:00,
2013-11-08 22:12:00,37.0,23.0,30.23,NNW,335,0.0,0.0,56,0.00,,,0.00,,2013-11-09 03:12:00,
2013-11-08 22:22:00,37.0,23.0,30.23,NNW,335,0.0,0.0,56,0.00,,,0.00,,2013-11-09 03:22:00,
2013-11-08 22:44:00,36.0,24.0,30.22,NNW,335,0.0,0.0,62,0.00,,,0.00,,2013-11-09 03:44:00,
2013-11-08 22:54:00,36.0,24.0,30.22,NNW,335,0.0,0.0,62,0.00,,,0.00,,2013-11-09 03:54:00,
2013-11-08 23:13:00,34.0,23.0,30.23,NNW,335,0.0,0.0,65,0.00,,,0.00,,2013-11-09 04:13:00,
2013-11-08 23:23:00,34.0,23.0,30.23,NNW,335,0.0,0.0,65,0.00,,,0.00,,2013-11-09 04:23:00,
2013-11-08 23:42:00,33.0,24.0,30.23,NNW,335,0.0,0.0,68,0.00,,,0.00,,2013-11-09 04:42:00,
2013-11-08 23:54:00,33.0,24.0,30.23,NNW,335,0.0,0.0,68,0.00,,,0.00,,2013-11-09 04:54:00,